User: anonymous   Login
Location: Unspecified
(0.0000°N, 0.0000°E)
Time: 12:49:05
(UTC+00:00)
Language:

KOMPSAT-2 - Orbit

View from above orbital plane
View from above orbital plane
View from above satellite
View from above satellite

Ground track
Ground track

The orbit data is extracted from the following two-line orbital elements,

1 29268U 06031A   18201.14192655  .00000033  00000-0  15729-4 0  9996
2 29268  98.0642  96.8361 0017582 190.9936 169.0902 14.62366127639150
Epoch (UTC): 20 July 2018 03:24:22
Eccentricity: 0.0017582
inclination: 98.0642°
perigee height: 673 km
apogee height: 698 km
right ascension of ascending node: 96.8361°
argument of perigee: 190.9936°
revolutions per day: 14.62366127
mean anomaly at epoch: 169.0902°
orbit number at epoch: 63915

The dashed part of the orbit path shows where the satellite is in the earth's shadow,  

DLR